Jefferson, NC

5:55 AM EDT on September 18, 2019 (GMT -0400)
Ashe County

Weather History for KGEV - May, 2019

Change the Weather History Date:

Wednesday, May 22, 2019

  Actual Average Record
Temperature  
Mean Temperature 61 °F -  
Max Temperature 67 °F 72 °F 86 °F (1970)
Min Temperature 55 °F 48 °F 32 °F (1968)
Degree Days  
Heating Degree Days 4    
Growing Degree Days 11 (Base 50)    
Moisture  
Dew Point 57 °F    
Average Humidity 90    
Maximum Humidity 100    
Minimum Humidity 73    
Precipitation  
Precipitation 0.00 in - - ()
Sea Level Pressure  
Sea Level Pressure 30.27 in    
Wind  
Wind Speed 1 mph (SSE)    
Max Wind Speed 9 mph    
Max Gust Speed -    
Visibility 8 miles    
Events Fog    
Averages and records for this station are not official NWS values.
T = Trace of Precipitation, MM = Missing Value Source: NWS Daily Summary

Daily Weather History Graph

Daily Weather History Graph

Search for Another Location

Airport or City:

Astronomy

May. 22, 2019 Rise Set
Actual Time 6:14 AM EDT 8:31 PM EDT
Civil Twilight 5:44 AM EDT 9:00 PM EDT
Nautical Twilight 5:09 AM EDT 9:36 PM EDT
Astronomical Twilight 4:29 AM EDT 10:15 PM EDT
Moon No Moon Rise 9:22 AM EDT (5/22)
Length of Visible Light 15h 15m
Length of Day
14h 16m
Waning Gibbous, 85% of the Moon is Illuminated
May 22
Waning Gibbous
May 26
Last Quarter
Jun 3
New
Jun 10
First Quarter
Jun 17
Full

Hourly Weather History & Observations

Time (EDT) Temp. Dew Point Humidity Pressure Visibility Wind Dir Wind Speed Gust Speed Precip Events Conditions
12:05 AM 63.7 °F 55.0 °F 73% 30.17 in 10.0 mi Calm Calm - N/A   Clear
12:25 AM 62.8 °F 55.0 °F 76% 30.17 in 10.0 mi Calm Calm - N/A   Clear
12:45 AM 62.6 °F 55.2 °F 77% 30.18 in 10.0 mi Calm Calm - N/A   Clear
1:05 AM 61.5 °F 54.9 °F 79% 30.19 in 10.0 mi Calm Calm - N/A   Clear
1:25 AM 61.5 °F 54.7 °F 78% 30.19 in 10.0 mi Calm Calm - N/A   Clear
1:45 AM 60.4 °F 54.1 °F 80% 30.19 in 10.0 mi Calm Calm - N/A   Clear
2:05 AM 60.8 °F 53.4 °F 77% 30.20 in 10.0 mi Calm Calm - N/A   Clear
2:25 AM 59.9 °F 52.9 °F 78% 30.20 in 10.0 mi Calm Calm - N/A   Clear
2:45 AM 59.4 °F 52.7 °F 79% 30.20 in 10.0 mi Calm Calm - N/A   Clear
3:05 AM 58.6 °F 52.7 °F 81% 30.20 in 10.0 mi Calm Calm - N/A   Clear
3:25 AM 58.3 °F 52.9 °F 82% 30.21 in 10.0 mi South 3.5 mph - N/A   Clear
3:45 AM 57.6 °F 53.1 °F 85% 30.21 in 10.0 mi SSE 4.6 mph - N/A   Clear
4:05 AM 57.4 °F 53.2 °F 86% 30.21 in 10.0 mi Calm Calm - N/A   Mostly Cloudy
4:25 AM 57.4 °F 53.2 °F 86% 30.21 in 10.0 mi Calm Calm - N/A   Mostly Cloudy
4:45 AM 57.2 °F 53.4 °F 87% 30.22 in 10.0 mi Calm Calm - N/A   Clear
5:05 AM 57.0 °F 53.2 °F 87% 30.22 in 10.0 mi Calm Calm - N/A   Clear
5:25 AM 56.7 °F 53.2 °F 88% 30.23 in 10.0 mi Calm Calm - N/A   Clear
5:45 AM 56.3 °F 53.2 °F 89% 30.24 in 10.0 mi Calm Calm - N/A   Scattered Clouds
6:05 AM 56.3 °F 53.6 °F 91% 30.25 in 10.0 mi Calm Calm - N/A   Mostly Cloudy
6:25 AM 56.1 °F 53.8 °F 92% 30.25 in 10.0 mi SSE 3.5 mph - N/A   Overcast
6:45 AM 55.9 °F 53.8 °F 92% 30.26 in 10.0 mi Calm Calm - N/A   Overcast
7:05 AM 56.3 °F 54.5 °F 94% 30.26 in 10.0 mi Calm Calm - N/A   Overcast
7:25 AM 56.3 °F 54.9 °F 95% 30.27 in 10.0 mi Calm Calm - N/A   Overcast
7:45 AM 56.3 °F 55.0 °F 96% 30.27 in 5.0 mi Calm Calm - N/A   Overcast
8:05 AM 56.3 °F 55.4 °F 97% 30.26 in 5.0 mi South 3.5 mph - N/A   Overcast
8:25 AM 56.3 °F 55.8 °F 98% 30.26 in 2.0 mi Calm Calm - N/A   Overcast
8:45 AM 57.2 °F 55.9 °F 96% 30.26 in 7.0 mi Calm Calm - N/A   Overcast
9:05 AM 57.4 °F 55.8 °F 94% 30.26 in 5.0 mi SSE 3.5 mph - N/A   Overcast
9:25 AM 57.4 °F 55.8 °F 94% 30.26 in 7.0 mi SSE 3.5 mph - N/A   Overcast
10:05 AM 57.2 °F 56.1 °F 96% 30.27 in 5.0 mi Calm Calm - N/A   Overcast
10:25 AM 57.0 °F 56.1 °F 97% 30.28 in 2.0 mi Calm Calm - N/A   Overcast
10:45 AM 56.7 °F 56.3 °F 99% 30.28 in 2.0 mi Calm Calm - N/A   Overcast
11:05 AM 57.7 °F 57.0 °F 97% 30.29 in 2.0 mi Calm Calm - N/A   Overcast
11:25 AM 58.1 °F 56.8 °F 96% 30.29 in 3.0 mi Calm Calm - N/A   Overcast
11:45 AM 58.1 °F 57.0 °F 96% 30.29 in 5.0 mi Calm Calm - N/A   Overcast
12:05 PM 58.6 °F 57.0 °F 94% 30.29 in 4.0 mi Calm Calm - N/A   Overcast
12:25 PM 60.1 °F 57.7 °F 92% 30.29 in 7.0 mi Calm Calm - N/A   Overcast
12:45 PM 60.3 °F 57.9 °F 92% 30.30 in 10.0 mi Calm Calm - N/A   Overcast
1:05 PM 60.3 °F 57.9 °F 92% 30.31 in 10.0 mi Calm Calm - N/A   Overcast
1:25 PM 62.6 °F 59.2 °F 89% 30.31 in 10.0 mi Calm Calm - N/A   Overcast
1:45 PM 64.2 °F 59.9 °F 86% 30.31 in 10.0 mi SSE 3.5 mph - N/A   Overcast
2:05 PM 64.4 °F 60.1 °F 86% 30.30 in 10.0 mi SE 4.6 mph - N/A   Overcast
2:25 PM 66.2 °F 60.4 °F 82% 30.29 in 10.0 mi SSE 4.6 mph - N/A   Overcast
2:45 PM 67.3 °F 60.8 °F 80% 30.29 in 10.0 mi South 8.1 mph - N/A   Scattered Clouds
3:05 PM 66.6 °F 60.6 °F 81% 30.29 in 10.0 mi SE 5.8 mph - N/A   Scattered Clouds
3:25 PM 66.4 °F 60.6 °F 82% 30.29 in 10.0 mi SSE 5.8 mph - N/A   Mostly Cloudy
3:45 PM 66.9 °F 60.8 °F 81% 30.28 in 10.0 mi SE 5.8 mph - N/A   Scattered Clouds
4:05 PM 65.1 °F 59.9 °F 83% 30.27 in 10.0 mi SE 5.8 mph - N/A   Scattered Clouds
4:25 PM 67.5 °F 61.3 °F 81% 30.27 in 10.0 mi SE 5.8 mph - N/A   Scattered Clouds
4:45 PM 66.2 °F 60.3 °F 81% 30.27 in 10.0 mi South 9.2 mph - N/A   Scattered Clouds
5:05 PM 66.0 °F 60.1 °F 81% 30.27 in 10.0 mi SSE 8.1 mph - N/A   Scattered Clouds
5:25 PM 64.0 °F 59.7 °F 86% 30.27 in 10.0 mi SSE 8.1 mph - N/A   Mostly Cloudy
5:45 PM 63.3 °F 59.5 °F 87% 30.27 in 10.0 mi SSE 6.9 mph - N/A   Overcast
6:05 PM 62.6 °F 59.7 °F 90% 30.29 in 10.0 mi SE 3.5 mph - N/A   Overcast
6:25 PM 61.5 °F 59.2 °F 92% 30.29 in 10.0 mi SSE 3.5 mph - N/A   Overcast
6:45 PM 61.2 °F 59.2 °F 93% 30.29 in 7.0 mi Calm Calm - N/A   Overcast
7:05 PM 61.0 °F 59.4 °F 94% 30.29 in 7.0 mi ESE 3.5 mph - N/A   Overcast
7:25 PM 60.6 °F 59.4 °F 96% 30.29 in 5.0 mi ESE 3.5 mph - N/A   Overcast
7:45 PM 60.8 °F 59.4 °F 95% 30.29 in 5.0 mi SE 3.5 mph - N/A   Overcast
8:05 PM 60.8 °F 59.4 °F 95% 30.29 in 5.0 mi SE 4.6 mph - N/A   Overcast
8:25 PM 60.8 °F 59.5 °F 96% 30.30 in 5.0 mi SE 3.5 mph - N/A   Overcast
8:45 PM 60.8 °F 59.4 °F 95% 30.30 in 7.0 mi South 5.8 mph - N/A   Overcast
9:05 PM 60.4 °F 59.4 °F 96% 30.31 in 5.0 mi SSE 5.8 mph - N/A   Overcast
9:25 PM 60.3 °F 59.5 °F 97% 30.31 in 5.0 mi SSE 3.5 mph - N/A   Overcast
9:45 PM 60.1 °F 59.4 °F 97% 30.31 in 4.0 mi South 4.6 mph - N/A   Overcast
10:05 PM 60.1 °F 59.5 °F 98% 30.31 in 4.0 mi SE 3.5 mph - N/A   Overcast
10:25 PM 59.9 °F 59.5 °F 99% 30.33 in 3.0 mi Calm Calm - N/A   Overcast
10:45 PM 59.9 °F 59.5 °F 99% 30.33 in 2.5 mi ESE 3.5 mph - N/A   Overcast
11:05 PM 59.5 °F 59.5 °F 100% 30.34 in 0.5 mi Calm Calm - N/A Fog Fog
11:25 PM 59.5 °F 59.5 °F 100% 30.35 in 0.2 mi Calm Calm - N/A Fog Fog
11:45 PM 59.5 °F 59.5 °F 100% 30.34 in 0.2 mi Calm Calm - N/A Fog Fog